Location: Casteau
(50.5142°N, 4.0161°E)
Time: 05:06:46
(UTC+00:00)

Vanguard 1 Rocket - Pass Details

Date: 28 July 2021
Orbit: 650 x 4226 km, 34.3° (Epoch: 21 September)

Event Time Altitude Azimuth Distance (km) Brightness Sun altitude
Rises 11:38:43 0° 236° (WSW) 7,009 12.1 58.3°
Reaches altitude 10° 11:44:56 10° 228° (SW) 5,346 11.8 58.3°
Maximum altitude 11:55:48 28° 178° (S) 2,855 11.1 58.3°
Drops below altitude 10° 12:02:26 10° 122° (ESE) 3,176 10.5 58.3°
Sets 12:05:04 0° 110° (ESE) 3,816 10.7 58.2°
